Location: Domont
(49.0278°N, 2.3264°E)
Time: 02:16:22
(UTC+00:00)

Orbus 7S? - Pass Details

Date: 04 June 2022
Orbit: 340 x 6374 km, 56.9° (Epoch: 04 July)

Event Time Altitude Azimuth Distance (km) Brightness Sun altitude
Rises 23:58:31 0° 236° (SW) 4,923 7.8 -18.5°
Reaches altitude 10° 00:00:48 10° 236° (WSW) 4,368 7.5 -18.5°
Maximum altitude 00:14:16 87° 327° (NNW) 3,617 7.3 -18.3°
Drops below altitude 10° 00:50:12 10° 63° (ENE) 9,854 10.2 -17.3°
Sets 00:59:06 0° 65° (ENE) 11,057 10.5 -16.9°
